EW5171 Weather Reports


Display with metric or nautical units.
time (UTC)temp
F
wind
direction
speed
MPH
gust
MPH
rain 1hr
in
rain 24hr
in
rain mn
in
humidity
%
barometer
mb
20260507192526 48 198 0.0 0.0 0.00 0.00 0.00 78 1019.4
20260507192026 49 198 0.0 0.0 0.00 0.00 0.00 78 1019.3
20260507191526 49 198 0.0 0.0 0.00 0.00 0.00 77 1019.3
20260507191025 49 198 0.0 0.0 0.00 0.00 0.00 77 1019.2
20260507190525 50 198 0.0 0.0 0.00 0.00 0.00 76 1019.2
20260507190025 50 198 0.0 0.0 0.00 0.00 0.00 76 1019.1
20260507185523 51 198 0.0 0.0 0.00 0.00 0.00 75 1019.1
20260507185026 51 198 0.0 0.0 0.00 0.00 0.00 75 1019.1
20260507184523 52 198 0.0 2.0 0.00 0.00 0.00 74 1019.0
20260507184027 52 198 0.0 2.0 0.00 0.00 0.00 74 1018.9
20260507183523 52 198 0.0 3.0 0.00 0.00 0.00 73 1019.0
20260507183023 52 198 1.0 3.0 0.00 0.00 0.00 73 1019.0
20260507182523 52 153 0.0 4.0 0.00 0.00 0.00 73 1018.9
20260507182022 52 202 1.0 4.0 0.00 0.00 0.00 72 1018.9
20260507181521 53 140 1.0 2.0 0.00 0.00 0.00 72 1018.9
20260507181022 53 150 0.0 3.0 0.00 0.00 0.00 72 1018.9
20260507180523 53 168 1.0 3.0 0.00 0.00 0.00 72 1018.8
20260507180020 53 188 1.0 3.0 0.00 0.00 0.00 72 1018.8
20260507175520 53 185 1.0 3.0 0.00 0.00 0.00 72 1018.7
20260507175023 53 188 0.0 3.0 0.00 0.00 0.00 72 1018.7
20260507174532 53 188 1.0 3.0 0.00 0.00 0.00 72 1018.7
20260507174018 53 174 1.0 4.0 0.00 0.00 0.00 72 1018.6
20260507173518 53 193 1.0 5.0 0.00 0.00 0.00 71 1018.6
20260507173019 53 153 1.0 6.0 0.00 0.00 0.00 71 1018.6
20260507172519 54 190 2.0 6.0 0.00 0.00 0.00 71 1018.5
20260507172016 54 152 3.0 7.0 0.00 0.00 0.00 70 1018.5
20260507171518 54 204 1.0 5.0 0.00 0.00 0.00 70 1018.4
20260507171019 54 181 1.0 5.0 0.00 0.00 0.00 69 1018.4
20260507170515 54 183 2.0 5.0 0.00 0.00 0.00 69 1018.4
20260507170021 54 188 1.0 4.0 0.00 0.00 0.00 69 1018.3
20260507165515 55 178 1.0 4.0 0.00 0.00 0.00 69 1018.3
20260507165015 55 185 1.0 4.0 0.00 0.00 0.00 68 1018.3
20260507164515 54 188 0.0 4.0 0.00 0.00 0.00 70 1018.2
20260507164017 55 172 2.0 5.0 0.00 0.00 0.00 68 1018.3
20260507163515 55 129 1.0 6.0 0.00 0.00 0.00 68 1018.3
20260507163014 55 105 1.0 4.0 0.00 0.00 0.00 67 1018.3
20260507162513 55 202 1.0 4.0 0.00 0.00 0.00 67 1018.3
20260507162013 55 55 1.0 6.0 0.00 0.00 0.00 67 1018.3
20260507161513 55 92 1.0 5.0 0.00 0.00 0.00 68 1018.3
20260507161013 55 168 2.0 5.0 0.00 0.00 0.00 68 1018.3
20260507160513 55 144 3.0 5.0 0.00 0.00 0.00 68 1018.3
20260507160015 55 165 2.0 7.0 0.00 0.00 0.00 67 1018.4
20260507155512 55 196 2.0 7.0 0.00 0.00 0.00 68 1018.3
20260507155012 55 192 1.0 6.0 0.00 0.00 0.00 70 1018.3
20260507154512 55 217 2.0 5.0 0.00 0.00 0.00 70 1018.3
20260507154014 55 186 2.0 5.0 0.00 0.00 0.00 69 1018.3
20260507153512 54 160 1.0 5.0 0.00 0.00 0.00 69 1018.3
20260507153015 54 188 1.0 4.0 0.00 0.00 0.00 69 1018.3
20260507152513 55 179 2.0 6.0 0.00 0.00 0.00 69 1018.3
20260507152015 55 126 2.0 6.0 0.00 0.00 0.00 68 1018.3
20260507151510 55 182 1.0 5.0 0.00 0.00 0.00 70 1018.3
20260507151012 54 180 1.0 5.0 0.00 0.00 0.00 69 1018.2
20260507150509 54 92 2.0 4.0 0.00 0.00 0.00 69 1018.2
20260507150010 54 188 1.0 6.0 0.00 0.00 0.00 69 1018.1
20260507145509 55 196 2.0 6.0 0.00 0.00 0.00 67 1018.1
20260507145009 56 209 1.0 4.0 0.00 0.00 0.00 68 1018.1
20260507144511 56 198 0.0 5.0 0.00 0.00 0.00 68 1018.1
20260507144009 56 213 1.0 5.0 0.00 0.00 0.00 67 1018.1
20260507143508 56 187 2.0 6.0 0.00 0.00 0.00 67 1018.1
20260507143009 56 191 2.0 7.0 0.00 0.00 0.00 68 1018.1
20260507142508 56 88 2.0 7.0 0.00 0.00 0.00 67 1018.1
20260507142008 56 77 1.0 7.0 0.00 0.00 0.00 69 1018.1
20260507141508 56 59 2.0 8.0 0.00 0.00 0.00 68 1018.1
20260507141007 56 212 4.0 8.0 0.00 0.00 0.00 66 1018.1
20260507140510 56 130 2.0 6.0 0.00 0.00 0.00 67 1018.1
20260507140007 56 205 3.0 7.0 0.00 0.00 0.00 66 1018.1
20260507135512 56 112 3.0 7.0 0.00 0.00 0.00 67 1018.0
20260507135008 56 198 2.0 6.0 0.00 0.00 0.00 68 1018.2
20260507134506 55 142 1.0 6.0 0.00 0.00 0.00 69 1018.0
20260507134010 55 167 2.0 6.0 0.00 0.00 0.00 67 1018.1
20260507133506 56 169 2.0 7.0 0.00 0.00 0.00 68 1018.0
20260507133006 55 171 2.0 8.0 0.00 0.00 0.00 69 1018.0
20260507132509 55 247 2.0 8.0 0.00 0.00 0.00 67 1017.9
20260507132004 56 55 3.0 8.0 0.00 0.00 0.00 68 1018.0
20260507131509 56 155 2.0 6.0 0.00 0.00 0.00 68 1018.0
20260507131004 56 229 3.0 7.0 0.00 0.00 0.00 66 1018.0
20260507130504 56 82 2.0 6.0 0.00 0.00 0.00 66 1017.9
20260507130004 57 153 2.0 6.0 0.00 0.00 0.00 67 1017.9
20260507125503 57 56 2.0 7.0 0.00 0.00 0.00 66 1017.8
20260507125002 57 80 2.0 6.0 0.00 0.00 0.00 66 1017.8
20260507124506 57 116 1.0 7.0 0.00 0.00 0.00 67 1017.8
20260507124002 57 49 1.0 7.0 0.00 0.00 0.00 67 1017.8
20260507123502 57 123 2.0 6.0 0.00 0.00 0.00 66 1017.8
20260507123002 58 157 1.0 8.0 0.00 0.00 0.00 67 1017.9
20260507122600 57 49 1.0 8.0 0.00 0.00 0.00 67 1017.9
20260507122059 58 197 2.0 6.0 0.00 0.00 0.00 65 1017.8
20260507121607 58 96 1.0 5.0 0.00 0.00 0.00 65 1017.8
20260507121058 57 54 1.0 10.0 0.00 0.00 0.00 66 1017.7
20260507120602 57 170 3.0 10.0 0.00 0.00 0.00 65 1017.7
20260507115556 59 167 2.0 7.0 0.00 0.00 0.00 64 1017.6
20260507115055 58 24 2.0 4.0 0.00 0.00 0.00 62 1017.6
20260507114612 57 20 2.0 4.0 0.00 0.00 0.00 64 1017.7
20260507114055 56 121 2.0 8.0 0.00 0.00 0.00 64 1017.7
20260507113555 56 183 2.0 8.0 0.00 0.00 0.00 64 1017.7
20260507113054 56 113 1.0 6.0 0.00 0.00 0.00 66 1017.7
20260507112557 55 217 2.0 6.0 0.00 0.00 0.00 67 1017.7
20260507112057 55 140 2.0 8.0 0.00 0.00 0.00 67 1017.6
20260507111559 55 184 3.0 8.0 0.00 0.00 0.00 67 1017.7
20260507111052 54 168 2.0 6.0 0.00 0.00 0.00 68 1017.7
20260507110552 54 206 1.0 6.0 0.00 0.00 0.00 69 1017.7
20260507110054 54 171 1.0 6.0 0.00 0.00 0.00 67 1017.6
20260507105551 54 94 1.0 4.0 0.00 0.00 0.00 67 1017.6
20260507105051 54 45 0.0 6.0 0.00 0.00 0.00 68 1017.6
20260507104552 54 118 1.0 6.0 0.00 0.00 0.00 67 1017.6
20260507104051 55 165 1.0 7.0 0.00 0.00 0.00 67 1017.6
20260507103550 56 100 1.0 6.0 0.00 0.00 0.00 66 1017.6
20260507103050 56 51 1.0 7.0 0.00 0.00 0.00 65 1017.5
20260507102549 57 95 1.0 5.0 0.00 0.00 0.00 65 1017.5
20260507102049 57 78 1.0 5.0 0.00 0.00 0.00 63 1017.4
20260507101547 58 313 0.0 3.0 0.00 0.00 0.00 64 1017.4
20260507101049 58 40 1.0 4.0 0.00 0.00 0.00 62 1017.4
20260507100547 59 327 1.0 4.0 0.00 0.00 0.00 61 1017.2
20260507100045 59 113 1.0 4.0 0.00 0.00 0.00 61 1017.2
20260507095546 59 86 2.0 6.0 0.00 0.00 0.00 60 1017.2
20260507095044 59 53 2.0 7.0 0.00 0.00 0.00 59 1017.2
20260507094544 58 79 1.0 7.0 0.00 0.00 0.00 61 1017.1
20260507094042 58 27 3.0 7.0 0.00 0.00 0.00 60 1017.0
20260507093542 59 43 2.0 6.0 0.00 0.00 0.00 59 1016.9
20260507093048 59 61 2.0 6.0 0.00 0.00 0.00 60 1016.9
20260507092539 58 106 1.0 6.0 0.00 0.00 0.00 60 1016.8
20260507092038 58 44 2.0 4.0 0.00 0.00 0.00 59 1016.8
20260507091538 58 103 2.0 5.0 0.00 0.00 0.00 59 1016.8
20260507091038 58 28 2.0 5.0 0.00 0.00 0.00 61 1016.8
20260507090537 58 57 2.0 5.0 0.00 0.00 0.00 61 1016.8
20260507090038 58 137 2.0 6.0 0.00 0.00 0.00 62 1016.8
20260507085533 57 88 1.0 5.0 0.00 0.00 0.00 62 1016.7
20260507085032 56 146 2.0 5.0 0.00 0.00 0.00 60 1016.7
20260507084531 56 158 1.0 5.0 0.00 0.00 0.00 60 1016.8
20260507084029 55 76 1.0 5.0 0.00 0.00 0.00 60 1016.8
20260507083528 55 248 2.0 7.0 0.00 0.00 0.00 58 1016.7
20260507083027 54 209 3.0 7.0 0.00 0.00 0.00 58 1016.7
20260507082524 54 265 2.0 6.0 0.00 0.00 0.00 58 1016.6
20260507082023 54 188 1.0 9.0 0.00 0.00 0.00 60 1016.5
20260507081535 54 209 3.0 6.0 0.00 0.00 0.00 57 1016.5
20260507081021 54 205 2.0 6.0 0.00 0.00 0.00 57 1016.4
20260507080522 54 198 0.0 5.0 0.00 0.00 0.00 59 1016.4
20260507080019 54 262 2.0 7.0 0.00 0.00 0.00 62 1016.4
20260507075521 54 177 4.0 7.0 0.00 0.00 0.00 61 1016.4
20260507075017 53 196 2.0 6.0 0.00 0.00 0.00 60 1016.4
20260507074524 53 42 2.0 6.0 0.00 0.00 0.00 62 1016.3
20260507074013 53 312 2.0 4.0 0.00 0.00 0.00 66 1016.3
20260507073514 52 167 1.0 7.0 0.00 0.00 0.00 67 1016.2
20260507073012 52 277 3.0 7.0 0.00 0.00 0.00 68 1016.2
20260507072510 52 140 1.0 6.0 0.00 0.00 0.00 69 1016.2
20260507072008 52 55 2.0 6.0 0.00 0.00 0.00 72 1016.3
20260507071508 52 294 1.0 5.0 0.00 0.00 0.00 75 1016.3
20260507071006 51 213 1.0 6.0 0.00 0.00 0.00 76 1016.2
20260507070505 51 272 1.0 6.0 0.00 0.00 0.00 76 1016.2
20260507070008 51 259 2.0 5.0 0.00 0.00 0.00 77 1016.2
20260507065502 51 255 2.0 4.0 0.00 0.00 0.00 78 1016.2
20260507065003 50 273 1.0 4.0 0.00 0.00 0.00 80 1016.0
20260507064600 50 251 1.0 4.0 0.00 0.00 0.00 80 1016.0
20260507064058 49 204 0.0 4.0 0.00 0.00 0.00 82 1016.1
20260507063557 49 46 1.0 5.0 0.00 0.00 0.00 83 1016.0
20260507063057 48 251 0.0 3.0 0.00 0.00 0.00 84 1016.0
20260507062554 48 280 1.0 4.0 0.00 0.00 0.00 85 1016.0
20260507062052 47 136 2.0 4.0 0.00 0.00 0.00 87 1016.0
20260507061551 47 218 0.0 7.0 0.00 0.00 0.00 88 1015.8
20260507061050 46 198 2.0 7.0 0.00 0.00 0.00 89 1015.8
20260507060548 45 202 1.0 4.0 0.00 0.00 0.00 91 1015.7
20260507060046 45 233 1.0 4.0 0.00 0.00 0.00 92 1015.6
20260507055545 44 224 2.0 4.0 0.00 0.00 0.00 93 1015.6
20260507055047 43 225 0.0 3.0 0.00 0.00 0.00 94 1015.5
20260507054600 42 225 0.0 2.0 0.00 0.00 0.00 95 1015.6
20260507054040 42 225 0.0 4.0 0.00 0.00 0.00 95 1015.5
20260507053539 41 225 2.0 4.0 0.00 0.00 0.00 95 1015.5
20260507053037 39 265 0.0 0.0 0.00 0.00 0.00 95 1015.5
20260507052536 39 265 0.0 1.0 0.00 0.00 0.00 95 1015.4
20260507052035 38 265 0.0 1.0 0.00 0.00 0.00 95 1015.4
20260507051535 37 265 0.0 1.0 0.00 0.00 0.00 95 1015.4
20260507051035 36 265 0.0 1.0 0.00 0.00 0.00 95 1015.4
20260507050532 36 265 0.0 0.0 0.00 0.00 0.00 94 1015.4
20260507050033 35 184 0.0 0.0 0.00 0.00 0.00 94 1015.4
20260507045532 35 184 0.0 0.0 0.00 0.00 0.00 94 1015.3
20260507045030 35 184 0.0 0.0 0.00 0.00 0.00 94 1015.3
20260507044531 34 184 0.0 0.0 0.00 0.00 0.00 93 1015.2
20260507044030 34 184 0.0 0.0 0.00 0.00 0.00 93 1015.2
20260507043529 34 184 0.0 0.0 0.00 0.00 0.00 93 1015.1
20260507043028 34 184 0.0 0.0 0.00 0.00 0.00 93 1015.1
20260507042527 34 184 0.0 0.0 0.00 0.00 0.00 93 1015.0
20260507042026 33 184 0.0 0.0 0.00 0.00 0.00 93 1015.0
20260507041525 33 184 0.0 0.0 0.00 0.00 0.00 93 1014.9
20260507041025 33 184 0.0 0.0 0.00 0.00 0.00 93 1014.9
20260507040525 33 184 0.0 0.0 0.00 0.00 0.00 93 1014.9
20260507040023 33 184 0.0 0.0 0.00 0.00 0.00 92 1014.9
20260507035523 33 184 0.0 0.0 0.00 0.00 0.00 92 1014.8
20260507035023 33 184 0.0 0.0 0.00 0.00 0.00 92 1014.9
20260507034522 33 184 0.0 0.0 0.00 0.00 0.00 92 1014.9
20260507034023 33 184 0.0 0.0 0.00 0.00 0.00 92 1014.8
20260507033521 33 184 0.0 0.0 0.00 0.00 0.00 92 1014.8
20260507033023 32 184 0.0 0.0 0.00 0.00 0.00 92 1014.8
20260507032519 33 184 0.0 0.0 0.00 0.00 0.00 92 1014.7
20260507032023 33 184 0.0 0.0 0.00 0.00 0.00 92 1014.8
20260507031518 33 184 0.0 0.0 0.00 0.00 0.00 91 1014.7
20260507031020 33 184 0.0 0.0 0.00 0.00 0.00 91 1014.7
20260507030518 33 184 0.0 0.0 0.00 0.00 0.00 91 1014.7
20260507030017 33 184 0.0 0.0 0.00 0.00 0.00 91 1014.7
20260507025516 33 184 0.0 0.0 0.00 0.00 0.00 91 1014.6
20260507025015 33 184 0.0 0.0 0.00 0.00 0.00 91 1014.6
20260507024515 33 184 0.0 0.0 0.00 0.00 0.00 91 1014.6
20260507024016 33 184 0.0 0.0 0.00 0.00 0.00 91 1014.5
20260507023514 33 184 0.0 0.0 0.00 0.00 0.00 91 1014.5
20260507023013 33 184 0.0 0.0 0.00 0.00 0.00 91 1014.4
20260507022512 33 184 0.0 0.0 0.00 0.00 0.00 91 1014.4
20260507022012 33 184 0.0 0.0 0.00 0.00 0.00 90 1014.4
20260507021510 34 184 0.0 0.0 0.00 0.00 0.00 91 1014.3
20260507021010 34 184 0.0 0.0 0.00 0.00 0.00 90 1014.3
20260507020509 34 184 0.0 0.0 0.00 0.00 0.00 90 1014.3
20260507020011 34 184 0.0 0.0 0.00 0.00 0.00 90 1014.3
20260507015508 34 184 0.0 0.0 0.00 0.00 0.00 90 1014.3
20260507015008 34 184 0.0 0.0 0.00 0.00 0.00 90 1014.3
20260507014508 34 184 0.0 0.0 0.00 0.00 0.00 90 1014.3
20260507014008 34 184 0.0 0.0 0.00 0.00 0.00 90 1014.2
20260507013507 34 184 0.0 0.0 0.00 0.00 0.00 89 1014.2
20260507013006 34 184 0.0 0.0 0.00 0.00 0.00 90 1014.1
20260507012505 34 184 0.0 0.0 0.00 0.00 0.00 90 1014.2
20260507012008 34 184 0.0 0.0 0.00 0.00 0.00 90 1014.2
20260507011505 34 184 0.0 0.0 0.00 0.00 0.00 89 1014.1
20260507011007 34 184 0.0 0.0 0.00 0.00 0.00 89 1014.2
20260507010504 34 184 0.0 0.0 0.00 0.00 0.00 89 1014.2
20260507010005 35 184 0.0 0.0 0.00 0.00 0.00 89 1014.1
20260507005502 35 184 0.0 0.0 0.00 0.00 0.00 89 1014.2
20260507005003 35 184 0.0 0.0 0.00 0.00 0.00 88 1014.1
20260507004600 36 184 0.0 0.0 0.00 0.00 0.00 89 1014.0
20260507004059 36 184 0.0 0.0 0.00 0.00 0.00 89 1014.1
20260507003559 36 184 0.0 0.0 0.00 0.00 0.00 88 1014.0
20260507003058 36 184 0.0 0.0 0.00 0.00 0.00 89 1014.0
20260507002558 36 184 0.0 0.0 0.00 0.00 0.00 89 1014.0
20260507002057 36 184 0.0 0.0 0.00 0.00 0.00 89 1014.1
20260507001604 36 184 0.0 0.0 0.00 0.00 0.00 88 1014.0
20260507001056 36 184 0.0 0.0 0.00 0.00 0.00 88 1014.0
20260507000556 36 184 0.0 0.0 0.00 0.00 0.00 87 1014.0
20260507000056 36 184 0.0 0.0 0.00 0.00 0.00 87 1013.9
20260506235558 36 184 0.0 0.0 0.00 0.00 0.00 87 1013.9
20260506235055 36 184 0.0 0.0 0.00 0.00 0.00 87 1013.9
20260506234556 36 184 0.0 0.0 0.00 0.00 0.00 87 1013.9
20260506234054 36 184 0.0 0.0 0.00 0.00 0.00 86 1013.9
20260506233554 36 184 0.0 0.0 0.00 0.00 0.00 86 1013.9
20260506233109 37 184 0.0 0.0 0.00 0.00 0.00 85 1014.0
20260506232551 37 184 0.0 0.0 0.00 0.00 0.00 85 1014.0
20260506232050 37 184 0.0 0.0 0.00 0.00 0.00 86 1014.1
20260506231550 37 184 0.0 0.0 0.00 0.00 0.00 86 1014.1
20260506231051 37 184 0.0 0.0 0.00 0.00 0.00 85 1014.0
20260506230548 37 184 0.0 0.0 0.00 0.00 0.00 84 1013.9
20260506230048 38 184 0.0 0.0 0.00 0.00 0.00 84 1013.9
20260506225546 38 184 0.0 0.0 0.00 0.00 0.00 83 1013.8
20260506225046 38 184 0.0 0.0 0.00 0.00 0.00 83 1013.7
20260506224546 38 184 0.0 0.0 0.00 0.00 0.00 83 1013.7
20260506224044 38 184 0.0 0.0 0.00 0.00 0.00 83 1013.7
20260506223546 38 184 0.0 0.0 0.00 0.00 0.00 82 1013.7
20260506223046 38 184 0.0 0.0 0.00 0.00 0.00 82 1013.7
20260506222543 39 184 0.0 0.0 0.00 0.00 0.00 82 1013.6
20260506222042 39 184 0.0 0.0 0.00 0.00 0.00 81 1013.6
20260506221540 39 184 0.0 0.0 0.00 0.00 0.00 80 1013.7
20260506221039 39 184 0.0 0.0 0.00 0.00 0.00 80 1013.6
20260506220538 40 184 0.0 0.0 0.00 0.00 0.00 80 1013.7
20260506220037 40 184 0.0 0.0 0.00 0.00 0.00 80 1013.7
20260506215539 41 184 0.0 0.0 0.00 0.00 0.00 80 1013.6
20260506215036 41 184 0.0 0.0 0.00 0.00 0.00 79 1013.6
20260506214536 41 184 0.0 0.0 0.00 0.00 0.00 79 1013.5
20260506214035 41 184 0.0 0.0 0.00 0.00 0.00 79 1013.5
20260506213535 41 184 0.0 0.0 0.00 0.00 0.00 78 1013.5
20260506213035 42 184 0.0 0.0 0.00 0.00 0.00 78 1013.4
20260506212534 42 184 0.0 0.0 0.00 0.00 0.00 78 1013.4
20260506212038 42 184 0.0 0.0 0.00 0.00 0.00 77 1013.4
20260506211535 43 57 0.0 0.0 0.00 0.00 0.00 78 1013.4
20260506211033 43 57 0.0 0.0 0.00 0.00 0.00 77 1013.4
20260506210533 43 57 0.0 0.0 0.00 0.00 0.00 77 1013.4
20260506210033 44 57 0.0 0.0 0.00 0.00 0.00 76 1013.3
20260506205535 44 57 0.0 0.0 0.00 0.00 0.00 76 1013.3
20260506205034 44 57 0.0 0.0 0.00 0.00 0.00 76 1013.3
20260506204531 45 57 0.0 0.0 0.00 0.00 0.00 76 1013.2
20260506204033 45 57 0.0 0.0 0.00 0.00 0.00 75 1013.2
20260506203530 45 57 0.0 0.0 0.00 0.00 0.00 75 1013.2
20260506203030 45 57 0.0 0.0 0.00 0.00 0.00 75 1013.2
20260506202529 45 57 0.0 0.0 0.00 0.00 0.00 74 1013.1
20260506202029 46 57 0.0 0.0 0.00 0.00 0.00 74 1013.1
20260506201530 46 57 0.0 0.0 0.00 0.00 0.00 73 1013.1
20260506201029 46 57 0.0 1.0 0.00 0.00 0.00 72 1013.0
20260506200531 47 57 0.0 2.0 0.00 0.00 0.00 72 1013.0
20260506200028 47 57 0.0 2.0 0.00 0.00 0.00 71 1013.0
20260506195527 48 57 0.0 1.0 0.00 0.00 0.00 70 1013.0
20260506195027 48 57 0.0 1.0 0.00 0.00 0.00 70 1012.9
20260506194527 48 57 0.0 2.0 0.00 0.00 0.00 69 1013.0
20260506194028 49 57 0.0 2.0 0.00 0.00 0.00 69 1012.9
20260506193526 49 57 0.0 2.0 0.00 0.00 0.00 68 1012.9
20260506193028 49 57 0.0 2.0 0.00 0.00 0.00 67 1012.8